Regional Weather Roundup
Issued by NWS

Home | Current Version | Previous Version | Graphics & Text | Print | Product List | Glossary On
Versions: 1 2 3 4 5 6 7 8 9 10 11 12 13 14 15 16 17 18 19 20 21 22 23 24 25 26 27 28 29 30 31 32 33 34 35 36 37 38 39 40 41 42 43 44 45 46 47 48 49 50
000
ASUS43 KLSX 291007
RWRMO

WEATHER SUMMARY FOR MISSOURI
NATIONAL WEATHER SERVICE SPRINGFIELD MO
400 AM CST THU JAN 29 2015

NOTE: "FAIR" INDICATES FEW OR NO CLOUDS BELOW 12,000 FEET WITH NO
       SIGNIFICANT WEATHER AND/OR OBSTRUCTIONS TO VISIBILITY.
       CURRENT SKY AND/OR WEATHER CONDITIONS ARE NOT AVAILABLE FOR
       CHILLICOTHE AND FARMINGTON.

MOZ001>031-035>038-043-044-053-054-291100-
...NORTHERN AND WESTERN MISSOURI...

CITY           SKY/WX    TMP DP  RH WIND       PRES   REMARKS
KANSAS CTY INT CLOUDY    41  35  79 NW23G33   30.06R
KANSAS C DTWN  CLOUDY    47  37  68 NW21G33   30.05R
LEE`S SUMMIT   CLOUDY    45  35  68 NW21G32   30.05R
ST JOSEPH      CLOUDY    40  31  70 N31G41    30.08R WCI  28
CHILLICOTHE      N/A     42  33  70 NW13G31   30.02R
KIRKSVILLE     FLURRIES  37  32  82 NW21G33   29.93R WCI  26

$$
MOZ066>068-077>081-088>096-101>105-291100-
...SOUTHWEST MISSOURI...

CITY           SKY/WX    TMP DP  RH WIND       PRES   REMARKS
SPRINGFIELD    CLEAR     51  36  56 NW8       29.96R
JOPLIN         CLEAR     51  35  54 NW13G23   30.04R

$$
MOZ032>034-039>042-045>050-055>058-069>072-291100-
...CENTRAL MISSOURI...

CITY           SKY/WX    TMP DP  RH WIND       PRES   REMARKS
COLUMBIA       PTCLDY    46  36  68 NW24G35   29.90R
JEFFERSON CITY CLEAR     49  37  63 NW21G26   29.90R
ROLLA          CLEAR     51  37  58 W18       29.85R
SEDALIA        CLOUDY    47  37  68 NW20G35   29.98R
WHITEMAN AFB   CLOUDY    46  37  70 NW20G37   29.99R
WARRENSBURG    CLOUDY    45  36  70 NW23G30   30.01R
OSAGE BEACH    CLEAR     52  36  54 NW8G21    29.92R

$$
MOZ051-052-059>065-291100-
...EAST CENTRAL MISSOURI...

CITY           SKY/WX    TMP DP  RH WIND       PRES   REMARKS
ST LOUIS INTL  PTCLDY    51  39  63 SW10      29.79R
SPIRIT OF STL  CLEAR     51  39  63 W8        29.79R
ST CHARLES     PTCLDY    47  38  71 W9        29.78R

$$
MOZ072>076-082>087-097>100-106>115-291100-
...SOUTH CENTRAL AND SOUTHEAST MISSOURI...

CITY           SKY/WX    TMP DP  RH WIND       PRES   REMARKS
CAPE GIRARDEAU NOT AVBL
FARMINGTON     PTCLDY    46  37  71 SW8       29.87S
POPLAR BLUFF   CLOUDY    51  40  65 SW13      29.89S
WEST PLAINS    PTCLDY    51  40  65 W7        29.91S

$$


USA.gov is the U.S. government's official web portal to all federal, state and local government web resources and services.